Location: Newark
(25.6108°S, 54.5803°W)
Time: 17:11:49
(UTC+00:00)

Courier 1B Rocket - Pass Details

Date: 28 October 2020
Orbit: 920 x 1202 km, 28.2° (Epoch: 22 November)

Event Time Altitude Azimuth Distance (km) Brightness Sun altitude
Rises 13:19:06 0° 259° (W) 3,731 7.7 58.6°
Reaches altitude 10° 13:21:51 10° 258° (WSW) 2,742 7.2 59.2°
Maximum altitude 13:28:27 81° 170° (S) 961 6.2 60.7°
Drops below altitude 10° 13:34:45 10° 82° (E) 2,619 7.9 62.0°
Sets 13:37:20 0° 81° (E) 3,554 8.3 62.5°
